Regional Weather Roundup
Issued by NWS

Home | Current Version | Previous Version | Graphics & Text | Print | Product List | Glossary On
Versions: 1 2 3 4 5 6 7 8 9 10 11 12 13 14 15 16 17 18 19 20 21 22 23 24 25 26 27 28 29 30 31 32 33 34 35 36 37 38 39 40 41 42 43 44 45 46 47 48 49 50
034
ASUS43 KFSD 271110
RWRSD

WEATHER ROUNDUP FOR SOUTH DAKOTA
NATIONAL WEATHER SERVICE SIOUX FALLS SD
600 AM CDT THU JUL 27 2017

NOTE: "FAIR" INDICATES FEW OR NO CLOUDS BELOW 12,000 FEET WITH NO
SIGNIFICANT WEATHER AND/OR OBSTRUCTIONS TO VISIBILITY.


SDZ001>005-009-010-012>017-271200-
NORTHWEST AND NORTH CENTRAL SOUTH DAKOTA

CITY           SKY/WX    TMP DP  RH WIND       PRES   REMARKS
BUFFALO          N/A     65  54  67 S12       30.04F
FAITH            N/A     61  53  75 S13       30.12S
MOBRIDGE       CLEAR     62  58  86 E8        30.11S
$$

SDZ012>016-024>037-041>051-057-063-072>074-271200-
SOUTHWEST AND SOUTH CENTRAL SOUTH DAKOTA

CITY           SKY/WX    TMP DP  RH WIND       PRES   REMARKS
RAPID CTY ARPT CLOUDY    67  56  67 S6        30.16R
PIERRE         CLEAR     60  54  80 E3        30.12R
CUSTER         CLOUDY    63  58  83 SE6       30.28S
ELLSWORTH AFB  PTCLDY    68  57  66 S7        30.15R
PHILIP         CLOUDY    67  57  70 E3        30.12S
PINE RIDGE     CLOUDY    71  60  68 VRB6      30.17R
SPEARFISH      CLOUDY    70  54  56 CALM      30.16R
WINNER         FAIR      67  59  75 CALM      30.14R
$$

SDZ004>011-016>023-039-040-271200-
NORTHEAST SOUTH DAKOTA

CITY           SKY/WX    TMP DP  RH WIND       PRES   REMARKS
ABERDEEN       CLEAR     58  57  97 N3        30.13S
WATERTOWN      CLEAR     58  56  93 NW6       30.12S
BROOKINGS      CLEAR     60  58  92 CALM      30.12S
SISSETON         N/A     56  55  97 NW3       30.11S
$$

SDZ017-020-022-023-036>040-048>070-271200-
SOUTHEAST SOUTH DAKOTA

CITY           SKY/WX    TMP DP  RH WIND       PRES   REMARKS
SIOUX FALLS    CLEAR     59  58  96 CALM      30.10S
HURON          CLEAR     58  58 100 CALM      30.12R
CHAMBERLAIN    CLEAR     63  61  94 CALM      30.13S
MITCHELL       CLEAR     61  60  97 NW3       30.12R
YANKTON        CLEAR     61  60  97 NW7       30.10S
$$

ABBREVIATIONS USED IN REMARKS
   TC - TEMPERATURE IN CELSIUS
  WCI - WIND CHILL INDEX
   HX - HEAT INDEX
  VSB - VISIBILITY





USA.gov is the U.S. government's official web portal to all federal, state and local government web resources and services.